Location: DaVinci Observatory
(43.1080°N, 78.6453°W)
Time: 09:12:02
(UTC-05:00)

Tiangong 2 - Pass Details

Date: 10 October 2017
Orbit: 386 x 390 km, 42.8° (Epoch: 14 December)

Event Time Altitude Azimuth Distance (km) Brightness Sun altitude
Exits shadow 05:33:08 27° 158° (SSE) 778 2.7 -20.7°
Maximum altitude 05:33:13 28° 155° (SSE) 777 2.7 -20.7°
Drops below altitude 10° 05:36:01 10° 94° (E) 1,425 5.1 -20.2°
Sets 05:38:17 0° 82° (E) 2,285 6.6 -19.8°
